When you browse on this site, cookies collect data to enhance your experience and personalize the content and advertising you see.
Visit our Privacy Policy to learn more. By continuing to use the site, you agree to this use of cookies and data.
  • In Lithuania
  • List of Countries
  • For 7 days
  • Water Temperature
  • Satellite Maps
  • Weather Map
  • Weather Widgets
  • user-avatar
    Login

    Hourly Weather Dorchester

    Today, 21 April, Sunday

    Time Temperature Precipitation Wind Pressure Humidity
    00:00 +13°C° 0 mm 2 mps 765 mmHg 83%
    01:00 +12°C° 0 mm 2 mps 764 mmHg 81%
    02:00 +11°C° 0 mm 1 mps 764 mmHg 78%
    03:00 +10°C° 0 mm 1 mps 763 mmHg 76%
    04:00 +10°C° 0 mm 1 mps 763 mmHg 76%
    05:00 +10°C° 0 mm 1 mps 763 mmHg 77%
    06:00 +10°C° 0 mm 1 mps 763 mmHg 77%
    07:00 +12°C° 0 mm 1 mps 762 mmHg 73%
    08:00 +14°C° 0 mm 2 mps 762 mmHg 68%
    09:00 +16°C° 0 mm 2 mps 762 mmHg 64%
    10:00 +18°C° 0 mm 2 mps 761 mmHg 61%
    11:00 +19°C° 0 mm 2 mps 761 mmHg 57%
    12:00 +20°C° 0 mm 2 mps 760 mmHg 53%
    13:00 +21°C° 0 mm 2 mps 760 mmHg 52%
    14:00 +21°C° 0 mm 2 mps 759 mmHg 52%
    15:00 +23°C° 0 mm 1 mps 759 mmHg 51%
    16:00 +22°C° 0 mm 1 mps 758 mmHg 57%
    17:00 +21°C° 0 mm 1 mps 758 mmHg 63%
    18:00 +20°C° 0 mm 1 mps 757 mmHg 68%
    19:00 +18°C° 0 mm 1 mps 757 mmHg 70%
    20:00 +15°C° 0 mm 2 mps 757 mmHg 73%
    21:00 +13°C° 0 mm 2 mps 756 mmHg 75%
    22:00 +13°C° 0 mm 2 mps 756 mmHg 74%
    23:00 +12°C° 0 mm 2 mps 756 mmHg 74%

    Tomorrow, 22 April, Monday

    Time Temperature Precipitation Wind Pressure Humidity
    00:00 +10°C° 0 mm 2 mps 755 mmHg 73%
    01:00 +9°C° 0 mm 2 mps 755 mmHg 72%
    02:00 +9°C° 0 mm 2 mps 754 mmHg 71%
    03:00 +8°C° 0 mm 2 mps 753 mmHg 70%
    04:00 +9°C° 0 mm 2 mps 753 mmHg 74%
    05:00 +9°C° 0 mm 2 mps 752 mmHg 78%
    06:00 +9°C° 0 mm 2 mps 752 mmHg 83%
    07:00 +12°C° 0 mm 3 mps 751 mmHg 79%
    08:00 +14°C° 0 mm 3 mps 751 mmHg 76%
    09:00 +17°C° 0 mm 4 mps 750 mmHg 73%
    10:00 +19°C° 0 mm 4 mps 750 mmHg 68%
    11:00 +20°C° 0 mm 5 mps 750 mmHg 62%
    12:00 +21°C° 0 mm 6 mps 749 mmHg 57%
    13:00 +21°C° 0.2 mm 5 mps 749 mmHg 60%
    14:00 +21°C° 0.2 mm 5 mps 748 mmHg 63%
    15:00 +21°C° 0.2 mm 5 mps 747 mmHg 66%
    16:00 +20°C° 0.3 mm 4 mps 747 mmHg 72%
    17:00 +18°C° 0.3 mm 4 mps 747 mmHg 78%
    18:00 +17°C° 0.3 mm 3 mps 746 mmHg 84%
    19:00 +16°C° 0 mm 3 mps 746 mmHg 85%
    20:00 +15°C° 0 mm 2 mps 747 mmHg 86%
    21:00 +14°C° 0 mm 2 mps 747 mmHg 88%
    22:00 +13°C° 0 mm 2 mps 746 mmHg 88%
    23:00 +13°C° 0 mm 2 mps 746 mmHg 88%

    Day after tomorrow, 23 April, Tuesday

    Time Temperature Precipitation Wind Pressure Humidity
    00:00 +13°C° 0 mm 2 mps 746 mmHg 89%
    01:00 +11°C° 0 mm 3 mps 745 mmHg 89%
    02:00 +11°C° 0 mm 3 mps 745 mmHg 89%
    03:00 +11°C° 0 mm 3 mps 745 mmHg 89%
    04:00 +11°C° 0 mm 3 mps 745 mmHg 89%
    05:00 +11°C° 0 mm 3 mps 744 mmHg 89%
    06:00 +11°C° 0 mm 3 mps 744 mmHg 89%
    07:00 +13°C° 0 mm 4 mps 744 mmHg 85%
    08:00 +14°C° 0 mm 4 mps 744 mmHg 80%
    09:00 +17°C° 0 mm 4 mps 744 mmHg 76%
    10:00 +17°C° 0 mm 5 mps 744 mmHg 72%
    11:00 +19°C° 0 mm 5 mps 744 mmHg 68%
    12:00 +20°C° 0 mm 5 mps 744 mmHg 64%
    13:00 +21°C° 0 mm 5 mps 744 mmHg 64%
    14:00 +21°C° 0 mm 5 mps 743 mmHg 64%
    15:00 +21°C° 0 mm 5 mps 743 mmHg 64%
    16:00 +20°C° 0.1 mm 5 mps 743 mmHg 69%
    17:00 +18°C° 0.1 mm 4 mps 743 mmHg 73%
    18:00 +17°C° 0.1 mm 4 mps 743 mmHg 77%
    19:00 +15°C° 0 mm 4 mps 743 mmHg 77%
    20:00 +13°C° 0 mm 3 mps 743 mmHg 78%
    21:00 +12°C° 0 mm 3 mps 743 mmHg 78%
    22:00 +11°C° 0 mm 3 mps 742 mmHg 80%
    23:00 +10°C° 0 mm 3 mps 742 mmHg 82%

    24 April, Wednesday

    Time Temperature Precipitation Wind Pressure Humidity
    00:00 +10°C° 0 mm 2 mps 742 mmHg 84%
    01:00 +10°C° 0 mm 2 mps 741 mmHg 86%
    02:00 +9°C° 0 mm 2 mps 741 mmHg 88%
    03:00 +10°C° 0 mm 1 mps 741 mmHg 90%
    04:00 +10°C° 1.3 mm 2 mps 741 mmHg 92%
    05:00 +10°C° 1.3 mm 2 mps 741 mmHg 94%
    06:00 +12°C° 1.3 mm 2 mps 741 mmHg 96%
    07:00 +11°C° 0.3 mm 3 mps 742 mmHg 93%
    08:00 +12°C° 0.3 mm 4 mps 742 mmHg 89%
    09:00 +12°C° 0.3 mm 5 mps 743 mmHg 85%
    10:00 +13°C° 0 mm 6 mps 743 mmHg 79%
    11:00 +13°C° 0 mm 6 mps 743 mmHg 73%
    12:00 +14°C° 0 mm 6 mps 743 mmHg 66%
    13:00 +14°C° 0 mm 6 mps 743 mmHg 65%
    14:00 +14°C° 0 mm 6 mps 743 mmHg 63%
    15:00 +14°C° 0 mm 6 mps 743 mmHg 62%
    16:00 +13°C° 0 mm 6 mps 743 mmHg 67%
    17:00 +13°C° 0 mm 5 mps 743 mmHg 72%
    18:00 +12°C° 0 mm 4 mps 743 mmHg 77%
    19:00 +10°C° 0 mm 5 mps 743 mmHg 78%
    20:00 +9°C° 0 mm 5 mps 743 mmHg 80%
    21:00 +9°C° 0 mm 5 mps 743 mmHg 81%
    22:00 +9°C° 0 mm 6 mps 743 mmHg 80%
    23:00 +9°C° 0 mm 6 mps 742 mmHg 79%

    25 April, Thursday

    Time Temperature Precipitation Wind Pressure Humidity
    00:00 +9°C° 0 mm 6 mps 742 mmHg 78%
    01:00 +9°C° 0.4 mm 6 mps 742 mmHg 83%
    02:00 +9°C° 0.4 mm 6 mps 742 mmHg 87%
    03:00 +9°C° 0.4 mm 5 mps 741 mmHg 92%
    04:00 +8°C° 2.4 mm 5 mps 741 mmHg 93%
    05:00 +8°C° 2.4 mm 4 mps 741 mmHg 95%
    06:00 +8°C° 2.4 mm 4 mps 741 mmHg 96%
    07:00 +8°C° 0.5 mm 5 mps 742 mmHg 92%
    08:00 +9°C° 0.5 mm 6 mps 742 mmHg 88%
    09:00 +10°C° 0.5 mm 7 mps 743 mmHg 84%
    10:00 +10°C° 0.3 mm 8 mps 743 mmHg 79%
    11:00 +11°C° 0.3 mm 8 mps 744 mmHg 75%
    12:00 +12°C° 0.3 mm 8 mps 744 mmHg 70%
    13:00 +12°C° 0.3 mm 8 mps 744 mmHg 70%
    14:00 +12°C° 0.3 mm 8 mps 744 mmHg 70%
    15:00 +12°C° 0.3 mm 8 mps 745 mmHg 70%
    16:00 +11°C° 0.3 mm 8 mps 745 mmHg 74%
    17:00 +10°C° 0.3 mm 7 mps 745 mmHg 78%
    18:00 +10°C° 0.3 mm 6 mps 745 mmHg 82%
    19:00 +9°C° 0 mm 6 mps 746 mmHg 84%
    20:00 +8°C° 0 mm 5 mps 746 mmHg 86%
    21:00 +7°C° 0 mm 5 mps 747 mmHg 88%
    22:00 +7°C° 0 mm 5 mps 747 mmHg 89%
    23:00 +7°C° 0 mm 5 mps 746 mmHg 89%

    26 April, Friday

    Time Temperature Precipitation Wind Pressure Humidity
    00:00 +6°C° 0 mm 5 mps 746 mmHg 90%
    01:00 +7°C° 0 mm 6 mps 746 mmHg 90%
    02:00 +6°C° 0 mm 7 mps 746 mmHg 89%
    03:00 +6°C° 0 mm 7 mps 746 mmHg 89%
    04:00 +7°C° 0.1 mm 6 mps 746 mmHg 90%
    05:00 +8°C° 0.1 mm 5 mps 746 mmHg 92%
    06:00 +8°C° 0.1 mm 4 mps 746 mmHg 93%
    07:00 +9°C° 0.1 mm 5 mps 747 mmHg 89%
    08:00 +10°C° 0.1 mm 5 mps 747 mmHg 86%
    09:00 +11°C° 0.1 mm 6 mps 748 mmHg 82%
    10:00 +12°C° 0 mm 7 mps 749 mmHg 77%
    11:00 +14°C° 0 mm 7 mps 750 mmHg 71%
    12:00 +13°C° 0 mm 8 mps 751 mmHg 66%
    13:00 +13°C° 0.2 mm 9 mps 752 mmHg 69%
    14:00 +13°C° 0.2 mm 9 mps 752 mmHg 72%
    15:00 +13°C° 0.2 mm 10 mps 753 mmHg 75%
    16:00 +12°C° 0 mm 9 mps 754 mmHg 75%
    17:00 +11°C° 0 mm 8 mps 754 mmHg 75%
    18:00 +10°C° 0 mm 6 mps 755 mmHg 75%
    19:00 +9°C° 0 mm 6 mps 755 mmHg 77%
    20:00 +8°C° 0 mm 6 mps 755 mmHg 79%
    21:00 +8°C° 0 mm 6 mps 755 mmHg 81%
    22:00 +8°C° 0.4 mm 7 mps 755 mmHg 86%
    23:00 +9°C° 0.4 mm 7 mps 755 mmHg 90%
    Show more